{"data":{"norad_id":59542,"epoch":"2026-05-25T00:58:35.754240Z","epoch_age_seconds":64763,"freshness":"FRESH","line1":"1 59542U 24074J   26145.04069160  .00000837  00000+0  39925-4 0  9995","line2":"2 59542  42.9987 272.1280 0001290 260.4177  99.6529 15.27578107117694","mean_motion":15.27578107,"eccentricity":0.000129,"inclination_deg":42.9987,"raan_deg":272.128,"arg_perigee_deg":260.4177,"mean_anomaly_deg":99.6529,"bstar":3.9925e-5,"rev_number":11769,"period_min":94.266865530562,"perigee_km":482.16967063091,"apogee_km":483.93985810611,"semimajor_km":6861.1917643685,"source":"CELESTRAK","updated_at":"2026-05-25T13:38:18.980232Z"}}